Location: Lake Arresoe
(56.0000°N, 12.5000°E)
Time: 17:28:10
(UTC+02:00)

Resurs 1-4 Rocket - Pass Details

Date: 01 August 2021
Orbit: 799 x 815 km, 98.6° (Epoch: 23 September)

Event Time Altitude Azimuth Distance (km) Brightness Sun altitude
Rises 04:14:32 0° 13° (NNE) 3,350 6.5 -7.1°
Reaches altitude 10° 04:17:03 10° 5° (N) 2,412 5.5 -6.8°
Maximum altitude 04:21:49 34° 302° (WNW) 1,304 3.1 -6.4°
Drops below altitude 10° 04:26:32 10° 238° (WSW) 2,390 3.9 -5.9°
Enters shadow 04:27:20 - 235° (SW) 2,678 4.1 -5.8°
